Preview of NWS' New Version of Forecast
This preview is not operational and should not be used for support decisions.

Regional Weather Roundup (RWR)

Issued by National Weather Service (NWS)

                            
000
ASPQ40 PGUM 250310
RWRPQ 
WEATHER ROUNDUP FOR THE MARIANAS AND MICRONESIA
NATIONAL WEATHER SERVICE TIYAN GU
100 PM CHST SUN AUG 25 2019

GUZ001>004-250400-
MARIANA ISLANDS-
  
CITY           SKY/WX    TMP DP  RH WIND       PRES   REMARKS
GUAM AIRPORT   MOSUNNY   88  77  70 SE15      29.80F HX 100           
ANDERSEN AFB   PTSUNNY   86  77  74 S16G22    29.80F HX  97           
ROTA AIRPORT   LGT RAIN  81  75  83 SE12      29.78F                  
TINIAN AP      MOSUNNY   86  79  79 SE9       29.79F HX  99           
SAIPAN AP      MOSUNNY   88  79  74 SE15      29.80F HX 102           

$$

PMZ161-250400-
REPUBLIC OF PALAU-
  
CITY           SKY/WX    TMP DP  RH WIND       PRES   REMARKS
KOROR AP       CLOUDY    79  73  83 W13G24    29.77F                  
KOROR WSO      NOT AVBL                                               

$$

PMZ171>174-250400-
FEDERATED STATES OF MICRONESIA-
  
CITY           SKY/WX    TMP DP  RH WIND       PRES   REMARKS
YAP AIRPORT    PTSUNNY   84  77  79 SW8       29.70F HX  94           
CHUUK AP       CLOUDY    86  79  79 VRB5      29.81S HX  99           
POHNPEI AP     MOSUNNY   88  77  70 N8        29.79F HX 100           
POHNPEI WSO    PTSUNNY   88  79  74 N5        29.82F HX 102           
KOSRAE AP      NOT AVBL                                               

$$

PMZ181-250400-
REPUBLIC OF THE MARSHALL ISLANDS-
  
CITY           SKY/WX    TMP DP  RH WIND       PRES   REMARKS
KWAJALEIN AP   MOSUNNY   88  77  70 E7        29.77F HX 100           
MAJURO AP      PTSUNNY   90  79  70 E12       29.76F HX 105           
MAJURO WSO     MOSUNNY   88  77  70 E10       29.75F HX 100           

$$